Location: Unspecified
(0.0000°N, 0.0000°E)
Time: 18:12:57
(UTC+00:00)

Transit 2A - Pass Details

Date: 20 May 2025
Orbit: 600 x 947 km, 66.7° (Epoch: 11 June)

Event Time Altitude Azimuth Distance (km) Brightness Sun altitude
Rises 04:56:15 0° 191° (S) 3,399 9.0 -14.1°
Reaches altitude 10° 04:58:53 10° 186° (S) 2,408 8.3 -13.5°
Maximum altitude 05:04:14 52° 111° (ESE) 942 6.8 -12.3°
Drops below altitude 10° 05:09:02 10° 35° (NE) 2,172 9.2 -11.2°
Sets 05:11:18 0° 30° (NNE) 3,036 10.0 -10.6°
